Simultaneous Nadir Overpasses (SNOs) Predictions

Prediction of SNOs between METOP-B and TERRA Satellite Orbit:

Table of predicted SNOs for the next 14.0 days since TLE Epoch: 2/15/2020
Index Date (METOP-B) Time (METOP-B) Lat,Lon (METOP-B) SZA (METOP-B ) Date (TERRA) Time (TERRA) Lat,Lon (TERRA) SZA (TERRA ) Distance(km) Time Diff (sec)
1 02/16/2020 06:21:31 -81.29, -48.88 83.97 02/16/2020 06:22:42 -81.29, -48.85 83.94 0.56 71
2 02/16/2020 07:12:10 81.29, 118.99 96.08 02/16/2020 07:12:08 81.30, 118.90 96.07 1.44 2
3 02/19/2020 01:55:55 -81.28, 17.33 84.97 02/19/2020 01:57:01 -81.28, 17.46 84.93 2.12 66
4 02/19/2020 02:46:34 81.29,-174.82 95.08 02/19/2020 02:46:27 81.29,-174.82 95.07 0.50 7
5 02/21/2020 21:30:18 -81.29, 83.92 85.95 02/21/2020 21:31:19 -81.30, 84.11 85.89 3.30 61
6 02/21/2020 22:20:57 81.29,-108.25 94.10 02/21/2020 22:20:45 81.30,-108.19 94.11 0.99 12
7 02/24/2020 17:04:40 -81.29, 150.50 86.94 02/24/2020 17:05:37 -81.29, 150.35 86.93 2.56 57
8 02/24/2020 17:55:20 81.29, -42.07 93.06 02/24/2020 17:55:03 81.29, -41.98 93.06 1.58 17
9 02/27/2020 12:39:03 -81.29,-142.92 87.95 02/27/2020 12:39:55 -81.29,-143.06 87.94 2.26 52




NCC Satellite Simultaneous Nadir Overpasses (SNOs) Prediction Service
